Date String (YYYY-MM-DD hh:mm:ss) UTC,Instrument flags,Ambient pressure (hPa),Sample flow (lpm),Bypass flow (lpm),Sample temperature (°C),Ambient temperature (°C),ASC tube jacket temperature (°C),LED temperature (°C),Box temperature (°C),Sample RH (%),Span deviation,Mass concentration (μg/m³),Mass concentration (μg/m³),Mass concentration (μg/m³)
DateTimeUTC,F1_M11,P_M11,Q1_M11,Q2_M11,T1_M11,T2_M11,T3_M11,T4_M11,T5_M11,U1_M11,ZSPAN_M11,X0_M11,X2_M11,X1_M11
2022-08-27 01:00:00,,0827.6,5.00,0.00,29.8,26.8,00.0,38.6,31.5,26.3,0000.0,0017.39,0004.40,0002.63
2022-08-27 01:01:00,,0827.5,5.00,0.00,29.8,27.2,00.0,38.6,31.5,26.5,0000.0,0018.33,0004.41,0002.64
2022-08-27 01:02:00,,0827.6,5.00,0.00,29.7,27.5,00.0,38.5,31.5,26.7,0000.0,0018.58,0004.41,0002.64
2022-08-27 01:03:00,,0827.5,5.00,0.00,29.7,27.8,00.0,38.5,31.5,26.7,0000.0,0018.79,0004.39,0002.67
2022-08-27 01:04:00,,0827.5,4.99,0.00,29.7,28.0,00.0,38.5,31.6,26.8,0000.0,0019.06,0004.43,0002.71
2022-08-27 01:05:00,,0827.6,5.02,0.00,29.7,28.2,00.0,38.5,31.6,26.8,0000.0,0018.41,0004.37,0002.72
2022-08-27 01:06:00,,0827.6,5.01,0.00,29.8,28.4,00.0,38.5,31.6,27.0,0000.0,0017.29,0004.41,0002.76
2022-08-27 01:07:00,,0827.6,5.00,0.00,29.8,28.5,00.0,38.5,31.7,27.1,0000.0,0018.60,0004.41,0002.79
2022-08-27 01:08:00,,0827.7,4.99,0.00,29.8,28.6,00.0,38.5,31.7,27.1,0000.0,0018.44,0004.36,0002.83
2022-08-27 01:09:00,,0827.7,5.00,0.00,29.8,28.7,00.0,38.6,31.7,27.2,0000.0,0019.16,0004.34,0002.86
2022-08-27 01:10:00,,0827.7,5.00,0.00,29.9,28.8,00.0,38.6,31.7,27.2,0000.0,0020.19,0004.30,0002.89
2022-08-27 01:11:00,,0827.7,5.00,0.00,29.9,28.9,00.0,38.6,31.8,27.2,0000.0,0018.90,0004.35,0002.93
2022-08-27 01:12:00,,0827.7,5.01,0.00,29.9,29.0,00.0,38.6,31.9,27.2,0000.0,0018.37,0004.40,0002.97
2022-08-27 01:13:00,,0827.7,5.01,0.00,30.0,29.0,00.0,38.6,31.9,27.2,0000.0,0018.41,0004.43,0002.99
2022-08-27 01:14:00,,0827.7,5.00,0.00,30.0,29.1,00.0,38.7,31.9,27.2,0000.0,0017.78,0004.45,0003.01
2022-08-27 01:15:00,,0827.7,5.00,0.00,30.0,28.8,00.0,38.7,32.0,27.2,0000.0,0016.56,0004.45,0003.03
2022-08-27 01:16:00,,0827.7,5.00,0.00,30.0,27.4,00.0,38.7,31.9,27.2,0000.0,0017.87,0004.54,0003.08
2022-08-27 01:17:00,,0827.7,5.01,0.00,30.0,27.0,00.0,38.6,31.8,27.3,0000.0,0017.66,0004.58,0003.11
2022-08-27 01:18:00,,0827.7,4.98,0.00,29.9,27.1,00.0,38.6,31.6,27.5,0000.0,0017.03,0004.60,0003.12
2022-08-27 01:19:00,,0827.7,5.01,0.00,29.8,27.4,00.0,38.6,31.6,27.7,0000.0,0018.73,0004.65,0003.15
2022-08-27 01:20:00,,0827.7,4.99,0.00,29.8,27.7,00.0,38.5,31.6,27.8,0000.0,0019.16,0004.65,0003.16
2022-08-27 01:21:00,,0827.7,4.99,0.00,29.8,28.0,00.0,38.5,31.6,27.8,0000.0,0018.36,0004.67,0003.17
2022-08-27 01:22:00,,0827.7,5.01,0.00,29.8,28.2,00.0,38.6,31.7,27.8,0000.0,0018.63,0004.70,0003.18
2022-08-27 01:23:00,,0827.8,5.01,0.00,29.8,28.4,00.0,38.6,31.7,27.6,0000.0,0018.11,0004.67,0003.18
2022-08-27 01:24:00,,0827.8,5.00,0.00,29.9,28.6,00.0,38.6,31.8,27.4,0000.0,0017.12,0004.63,0003.20
2022-08-27 01:25:00,,0827.9,5.00,0.00,29.9,28.7,00.0,38.6,31.8,27.0,0000.0,0017.21,0004.62,0003.22
2022-08-27 01:26:00,,0827.9,5.00,0.00,29.9,28.8,00.0,38.6,31.8,27.0,0000.0,0017.73,0004.61,0003.22
2022-08-27 01:27:00,,0827.9,5.00,0.00,29.9,28.9,00.0,38.6,31.9,27.0,0000.0,0016.93,0004.58,0003.22
2022-08-27 01:28:00,,0827.8,5.00,0.00,30.0,29.0,00.0,38.7,31.9,27.1,0000.0,0017.22,0004.55,0003.22
2022-08-27 01:29:00,,0827.9,4.99,0.00,30.0,29.1,00.0,38.7,31.9,27.3,0000.0,0017.01,0004.56,0003.23
2022-08-27 01:30:00,,0827.9,5.01,0.00,30.0,29.1,00.0,38.7,32.0,27.0,0000.0,0016.14,0004.49,0003.23
2022-08-27 01:31:00,,0827.9,4.99,0.00,30.1,28.8,00.0,38.7,32.0,26.9,0000.0,0015.12,0004.50,0003.22
2022-08-27 01:32:00,,0827.9,5.01,0.00,30.0,27.5,00.0,38.7,31.9,26.9,0000.0,0014.65,0004.52,0003.23
2022-08-27 01:33:00,,0827.9,4.99,0.00,30.0,27.0,00.0,38.7,31.9,26.9,0000.0,0014.32,0004.47,0003.23
2022-08-27 01:34:00,,0827.9,5.01,0.00,29.9,27.1,00.0,38.6,31.7,27.2,0000.0,0014.66,0004.46,0003.23
2022-08-27 01:35:00,,0827.8,4.99,0.00,29.9,27.4,00.0,38.6,31.6,27.4,0000.0,0015.05,0004.46,0003.23
2022-08-27 01:36:00,,0827.8,5.00,0.00,29.9,27.7,00.0,38.6,31.6,27.2,0000.0,0015.08,0004.45,0003.22
2022-08-27 01:37:00,,0827.8,5.00,0.00,29.9,28.0,00.0,38.6,31.7,27.7,0000.0,0014.94,0004.43,0003.24
2022-08-27 01:38:00,,0827.9,5.01,0.00,29.9,28.3,00.0,38.6,31.7,27.1,0000.0,0015.11,0004.44,0003.23
2022-08-27 01:39:00,,0827.8,4.99,0.00,29.9,28.4,00.0,38.6,31.7,27.0,0000.0,0015.05,0004.47,0003.24
2022-08-27 01:40:00,,0827.9,5.00,0.00,29.9,28.6,00.0,38.6,31.8,27.0,0000.0,0015.54,0004.55,0003.25
2022-08-27 01:41:00,,0827.9,5.01,0.00,29.9,28.7,00.0,38.6,31.8,27.8,0000.0,0015.42,0004.70,0003.27
2022-08-27 01:42:00,,0827.9,5.00,0.00,29.9,28.8,00.0,38.6,31.8,28.1,0000.0,0015.63,0004.79,0003.29
2022-08-27 01:43:00,,0828.0,4.99,0.00,30.0,28.9,00.0,38.7,31.9,28.2,0000.0,0015.78,0004.81,0003.31
2022-08-27 01:44:00,,0828.0,5.00,0.00,30.0,29.0,00.0,38.7,31.9,28.4,0000.0,0016.18,0004.87,0003.32
2022-08-27 01:45:00,,0828.0,5.00,0.00,30.0,29.0,00.0,38.7,32.0,28.6,0000.0,0016.38,0004.91,0003.33
2022-08-27 01:46:00,,0827.9,4.99,0.00,30.0,28.6,00.0,38.7,32.0,28.7,0000.0,0017.03,0004.95,0003.36
2022-08-27 01:47:00,,0827.9,5.00,0.00,30.0,27.3,00.0,38.7,31.9,28.7,0000.0,0017.39,0005.05,0003.39
2022-08-27 01:48:00,,0827.9,5.01,0.00,30.0,26.9,00.0,38.7,31.8,28.8,0000.0,0017.35,0005.17,0003.41
2022-08-27 01:49:00,,0827.8,4.99,0.00,29.9,27.1,00.0,38.6,31.6,28.8,0000.0,0017.78,0005.25,0003.44
2022-08-27 01:50:00,,0827.8,5.01,0.00,29.8,27.4,00.0,38.6,31.5,28.7,0000.0,0018.14,0005.30,0003.45
2022-08-27 01:51:00,,0827.9,5.00,0.00,29.8,27.7,00.0,38.6,31.6,28.8,0000.0,0019.94,0005.30,0003.47
2022-08-27 01:52:00,,0827.9,4.99,0.00,29.8,28.0,00.0,38.6,31.6,28.7,0000.0,0021.19,0005.31,0003.48
2022-08-27 01:53:00,,0827.8,5.00,0.00,29.8,28.2,00.0,38.6,31.7,28.7,0000.0,0021.83,0005.23,0003.46
2022-08-27 01:54:00,,0827.8,5.00,0.00,29.8,28.4,00.0,38.6,31.7,28.6,0000.0,0022.17,0005.24,0003.46
2022-08-27 01:55:00,,0827.8,4.99,0.00,29.9,28.5,00.0,38.6,31.7,28.7,0000.0,0022.26,0005.29,0003.47
2022-08-27 01:56:00,,0827.7,5.00,0.00,29.9,28.7,00.0,38.6,31.8,28.6,0000.0,0023.48,0005.34,0003.47
2022-08-27 01:57:00,,0827.7,5.01,0.00,29.9,28.8,00.0,38.6,31.8,28.6,0000.0,0021.90,0005.30,0003.46
2022-08-27 01:58:00,,0827.7,5.00,0.00,29.9,28.9,00.0,38.6,31.9,28.5,0000.0,0020.93,0005.27,0003.45
2022-08-27 01:59:00,,0827.7,5.00,0.00,30.0,28.9,00.0,38.7,31.9,28.4,0000.0,0020.23,0005.24,0003.45
